Location: Bathurst
(33.4193°S, 149.5775°E)
Time: 07:09:47
(UTC+11:00)

ISS - Visible Passes

Search period start: 20 February 2018 00:00
Search period end: 02 March 2018 00:00
Orbit: 403 x 407 km, 51.6° (Epoch: 20 February)

Date Brightness Start Highest point End Pass type
(mag) Time Alt. Az. Time Alt. Az. Time Alt. Az.
20 Feb -0.7 04:06:55 15° ESE 04:06:55 15° ESE 04:08:06 10° E visible
20 Feb -3.4 05:39:44 14° WSW 05:42:18 39° NW 05:45:25 10° NNE visible
20 Feb -3.4 20:39:36 10° NNW 20:42:43 41° NE 20:45:53 10° ESE visible
20 Feb -0.8 22:17:00 10° WSW 22:18:50 17° SW 22:18:50 17° SW visible
21 Feb -1.8 04:52:11 22° NE 04:52:11 22° NE 04:53:29 10° NE visible
21 Feb -1.9 21:23:59 10° WNW 21:26:58 30° SW 21:29:59 10° SSE visible
22 Feb -3.3 20:31:25 10° NW 20:34:41 63° SW 20:38:00 10° SE visible
23 Feb -0.7 21:17:13 10° WSW 21:19:13 15° SSW 21:21:13 10° S visible
24 Feb -1.4 20:23:59 10° W 20:26:46 25° SW 20:29:36 10° SSE visible
26 Feb -0.7 20:17:28 10° WSW 20:18:59 13° SSW 20:20:31 10° S visible
